Hourly Weather Roundup
Issued by NWS Central Illinois

Home | Current Version | Previous Version | Text Only | Print | Product List | Glossary On
Versions: 1 2 3 4 5 6 7 8 9 10 11 12 13 14 15 16 17 18 19 20 21 22 23 24 25 26 27 28 29 30 31 32 33 34 35 36 37 38 39 40 41 42 43 44 45 46 47 48 49 50
000
NZUS43 KILX 241310
HWRILX

AREA WEATHER ROUNDUP
NATIONAL WEATHER SERVICE, LINCOLN IL
800 AM CDT SAT SEP 24 2016


CITY           SKY/WX    TMP DP  RH WIND       PRES   REMARKS
BLOOMINGTON    CLOUDY    68  66  94 E8        30.16R FOG
CHAMPAIGN      FOG       67  66  97 E9        30.15R VSB 1/4
DANVILLE       CLOUDY    66  66  98 E3        30.14R FOG
DECATUR        FOG       66  64  93 E3        30.14R VSB 1
EFFINGHAM      SUNNY     66  66 100 CALM      30.16R FOG
FLORA          SUNNY     68  67  98 CALM      30.14R FOG
GALESBURG      CLOUDY   N/A N/A N/A E5          N/A
JACKSONVILLE   FOG       65  65  97 E5        30.13R VSB 1/4
LACON          CLOUDY    69  67  94 E5        30.14R FOG
LAWRENCEVILLE  MOSUNNY   68  66  93 CALM      30.14R FOG
LITCHFIELD     SUNNY     67  63  86 CALM      30.13S
$$


CITY           SKY/WX    TMP DP  RH WIND       PRES   REMARKS
LINCOLN        FOG       66  66 100 E7        30.14R VSB 1/4
MACOMB         FOG       65  65 100 CALM      30.14R VSB<1/4
MATTOON        SUNNY     67  64  90 CALM      30.14R FOG
MT CARMEL AP   SUNNY     65  64  96 CALM      30.13R FOG
OLNEY-NOBLE AP SUNNY     66  66 100 CALM      30.14R FOG
PARIS          SUNNY     67  67  98 CALM      30.15R FOG
PEORIA         CLOUDY    69  68  96 E7        30.14R FOG
PONTIAC        CLOUDY    69  69 100 E9        30.17R FOG
RANTOUL        CLOUDY    70  68  94 E8        30.16R FOG
ROBINSON       FOG       63  63 100 CALM      30.14R VSB 1/4
SPRINGFIELD    FOG       68  67  96 E3        30.13R VSB 1/2
TAYLORVILLE    SUNNY     66  65  96 CALM      30.13S
$$

...REGIONAL REPORTS...


CITY           SKY/WX    TMP DP  RH WIND       PRES   REMARKS
CHICAGO O`HARE CLOUDY    66  61  84 E9        30.19R
KANKAKEE       CLOUDY    68  66  94 E7        30.17S FOG
MOLINE         CLOUDY    68  65  90 E9        30.14R FOG
MOUNT STERLING FOG       66  66  99 E3        30.11S VSB 1
MOUNT VERNON   SUNNY     66  61  82 CALM      30.14R
PITTSFIELD     SUNNY     67  66  96 CALM      30.13R FOG
QUINCY         SUNNY     69  66  90 E6        30.11R FOG
ROCKFORD       CLOUDY    66  61  84 E6        30.19S
$$


CITY           SKY/WX    TMP DP  RH WIND       PRES   REMARKS
BURLINGTON     CLOUDY    66  66 100 E6        30.12R FOG
CEDAR RAPIDS   FOG       66  66 100 E8        30.12R VSB 1
DES MOINES     PTCLDY    69  66  90 E8        30.05R FOG
KIRKSVILLE     SUNNY     67  64  90 E5        30.10R
OTTUMWA        FOG       67  66  97 E8        30.09R VSB 1
ST LOUIS       MOSUNNY   75  67  76 CALM      30.12R
$$


CITY           SKY/WX    TMP DP  RH WIND       PRES   REMARKS
TERRE HAUTE    SUNNY     68  66  93 NE3       30.14R FOG
EVANSVILLE     SUNNY     70  66  87 CALM      30.14R FOG
INDIANAPOLIS   CLOUDY    68  66  93 E8        30.15R FOG
LAFAYETTE      CLOUDY    67  66  97 NE10      30.15R FOG
MADISON        RAIN      61  59  93 E8G18     30.20S FOG
MILWAUKEE      PTSUNNY   64  57  78 E13       30.23R
$$





USA.gov is the U.S. government's official web portal to all federal, state and local government web resources and services.